TimeEDT,TemperatureF,Dew PointF,Humidity,Sea Level PressureIn,VisibilityMPH,Wind Direction,Wind SpeedMPH,Gust SpeedMPH,PrecipitationIn,Events,Conditions,WindDirDegrees,DateUTC
12:52 AM,59.0,42.1,53,30.15,10.0,North,4.6,-,N/A,,Clear,350,2013-09-06 04:52:00
1:52 AM,57.0,43.0,59,30.16,10.0,NNW,8.1,-,N/A,,Clear,330,2013-09-06 05:52:00
2:52 AM,55.9,43.0,62,30.17,10.0,North,9.2,-,N/A,,Clear,350,2013-09-06 06:52:00
3:52 AM,55.0,43.0,64,30.18,10.0,North,11.5,-,N/A,,Clear,360,2013-09-06 07:52:00
4:52 AM,55.0,43.0,64,30.19,10.0,North,11.5,-,N/A,,Clear,360,2013-09-06 08:52:00
5:52 AM,54.0,43.0,66,30.20,10.0,NNE,5.8,-,N/A,,Clear,20,2013-09-06 09:52:00
6:52 AM,54.0,43.0,66,30.22,10.0,North,5.8,-,N/A,,Clear,10,2013-09-06 10:52:00
7:52 AM,57.0,43.0,59,30.24,10.0,North,6.9,-,N/A,,Clear,10,2013-09-06 11:52:00
8:52 AM,60.1,43.0,53,30.26,10.0,NNE,9.2,-,N/A,,Clear,30,2013-09-06 12:52:00
9:52 AM,62.1,42.1,48,30.26,10.0,NE,9.2,-,N/A,,Clear,40,2013-09-06 13:52:00
10:52 AM,64.9,39.9,40,30.25,10.0,NNE,8.1,-,N/A,,Clear,30,2013-09-06 14:52:00
11:52 AM,64.9,41.0,42,30.25,10.0,ESE,3.5,-,N/A,,Clear,120,2013-09-06 15:52:00
12:52 PM,66.0,43.0,43,30.24,10.0,South,8.1,-,N/A,,Clear,180,2013-09-06 16:52:00
1:52 PM,66.9,44.1,44,30.22,9.0,South,8.1,-,N/A,,Clear,170,2013-09-06 17:52:00
2:52 PM,68.0,43.0,40,30.21,10.0,South,10.4,-,N/A,,Clear,170,2013-09-06 18:52:00
3:52 PM,69.1,43.0,39,30.18,10.0,SSW,10.4,-,N/A,,Clear,210,2013-09-06 19:52:00
4:52 PM,69.1,44.1,40,30.16,10.0,SSW,9.2,-,N/A,,Clear,200,2013-09-06 20:52:00
5:52 PM,69.1,44.1,40,30.16,10.0,SSW,9.2,-,N/A,,Clear,210,2013-09-06 21:52:00
6:52 PM,68.0,43.0,40,30.16,10.0,SW,5.8,-,N/A,,Clear,230,2013-09-06 22:52:00
7:52 PM,64.9,45.0,48,30.16,10.0,Calm,Calm,-,N/A,,Clear,0,2013-09-06 23:52:00
8:52 PM,62.1,46.0,56,30.16,10.0,Calm,Calm,-,N/A,,Clear,0,2013-09-07 00:52:00
9:52 PM,61.0,46.9,60,30.15,10.0,Calm,Calm,-,N/A,,Clear,0,2013-09-07 01:52:00
10:52 PM,57.9,46.9,67,30.15,10.0,North,3.5,-,N/A,,Clear,350,2013-09-07 02:52:00
11:52 PM,55.9,46.9,72,30.14,10.0,Calm,Calm,-,N/A,,Clear,0,2013-09-07 03:52:00